Weather in Pontevedra

Spain     42°26′01″N   8°38′23″W
temp.,
°C
wind,
m/s
gust,
m/s
humid.,
%
clouds,
%
prec.,
mm/h
press.,
hPa
HPBL,
m
8 may, sat
sat823:00+11se11967 0.0 101932
02:00+10se229653 0.0 101745
05:00+9se2293100 0.0 101647
08:00+10se2287100 0.0 101457
11:00+17s386039 0.0 1013812
14:00+18ssw611620 0.0 1011962
17:00+18ssw611660 0.0 10091059
20:00+16ssw611700 0.0 10071058
9 may, sun
sun923:00+14sse4117813 0.1 1006727
02:00+14sse51384100 0.3 10031070
05:00+11nw2798100 21.6 1002500
08:00+10se2397100 36.1 1003209
11:00+12ssw369178 1.1 1004543
14:00+14wsw487821 3.1 10051443
17:00+15wsw6106811 1.1 10061479
20:00+12wsw488729 3.8 1007792
10 may, mon
mon1023:00+10wsw37917 2.3 1009279
02:00+10sw3692100 4.9 1009279
05:00+9sw369372 4.6 1008243
08:00+8ssw249264 8.2 1009204
11:00+11ssw238497 3.1 1009521
14:00+11wsw2589100 5.1 1010652
17:00+12w468521 2.2 1010976
20:00+10wnw488862 4.4 1012748
11 may, tue
tue1123:00+7w149070 1.6 1014186
02:00+7w259018 3.9 1016285
05:00+7wnw159111 2.3 1016206
08:00+8w279013 4.9 1018320
11:00+11w478596 2.0 1019999
14:00+13w576899 3.7 10201313
17:00+14wsw576482 0.8 10211331
20:00+12sw3674100 1.3 1021776
12 may, wed
wed1223:00+11ssw4987100 0.6 1021502
02:00+11ssw6119298 2.1 1019824
05:00+12ssw71597100 3.8 10161271
08:00+13sw611947 5.9 1016844
11:00+14sw7118939 1.0 10161040
14:00+14wnw69865 3.3 1018954
17:00+15wnw57685 0.4 10201167
20:00+13wsw368281 0.8 1020741